• In Hungary
  • List of Countries
  • For 7 days
  • Water Temperature
  • Satellite Maps
  • Weather Map
  • News
  • Weather Widgets
  • user-avatar
    Login

    Hourly Weather Rynskie

    Today, 16 July, Monday

    Time Temperature Precipitation Wind Pressure Humidity
    00:00 +16°C° 0 mm 3 mps 748 mmHg 93%
    01:00 +16°C° 0 mm 3 mps 747 mmHg 95%
    02:00 +16°C° 0.5 mm 3 mps 747 mmHg 95%
    03:00 +16°C° 0.5 mm 3 mps 747 mmHg 96%
    04:00 +16°C° 0.5 mm 3 mps 747 mmHg 96%
    05:00 +17°C° 0.4 mm 3 mps 747 mmHg 93%
    06:00 +19°C° 0.4 mm 4 mps 747 mmHg 90%
    07:00 +20°C° 0 mm 4 mps 747 mmHg 86%
    08:00 +21°C° 0.8 mm 4 mps 747 mmHg 83%
    09:00 +22°C° 0.8 mm 5 mps 746 mmHg 80%
    10:00 +23°C° 0.8 mm 5 mps 746 mmHg 76%
    11:00 +23°C° 0.8 mm 4 mps 746 mmHg 78%
    12:00 +23°C° 0.8 mm 4 mps 746 mmHg 79%
    13:00 +23°C° 0.8 mm 4 mps 746 mmHg 79%
    14:00 +23°C° 0.9 mm 4 mps 745 mmHg 82%
    15:00 +22°C° 0.9 mm 4 mps 745 mmHg 85%
    16:00 +22°C° 0.9 mm 4 mps 745 mmHg 87%
    17:00 +21°C° 1.4 mm 4 mps 745 mmHg 90%
    18:00 +20°C° 1.4 mm 3 mps 745 mmHg 92%
    19:00 +20°C° 1.4 mm 3 mps 745 mmHg 94%
    20:00 +19°C° 1.4 mm 3 mps 744 mmHg 95%
    21:00 +19°C° 1.4 mm 3 mps 744 mmHg 95%
    22:00 +19°C° 1.4 mm 3 mps 744 mmHg 96%
    23:00 +19°C° 0.9 mm 3 mps 744 mmHg 96%

    Tomorrow, 17 July, Tuesday

    Time Temperature Precipitation Wind Pressure Humidity
    00:00 +19°C° 0.9 mm 3 mps 744 mmHg 96%
    01:00 +19°C° 0.9 mm 2 mps 744 mmHg 96%
    02:00 +18°C° 0.4 mm 3 mps 743 mmHg 96%
    03:00 +18°C° 0.4 mm 3 mps 743 mmHg 96%
    04:00 +18°C° 0.4 mm 3 mps 743 mmHg 96%
    05:00 +19°C° 0.5 mm 3 mps 743 mmHg 96%
    06:00 +19°C° 0.5 mm 3 mps 743 mmHg 95%
    07:00 +20°C° 0.5 mm 4 mps 742 mmHg 94%
    08:00 +20°C° 0.7 mm 4 mps 742 mmHg 92%
    09:00 +21°C° 0.7 mm 4 mps 742 mmHg 90%
    10:00 +22°C° 0.7 mm 4 mps 742 mmHg 88%
    11:00 +22°C° 0.9 mm 4 mps 742 mmHg 87%
    12:00 +23°C° 0.9 mm 4 mps 742 mmHg 85%
    13:00 +24°C° 0.9 mm 3 mps 742 mmHg 84%
    14:00 +24°C° 0.6 mm 3 mps 742 mmHg 87%
    15:00 +24°C° 0.6 mm 3 mps 742 mmHg 89%
    16:00 +23°C° 0.6 mm 2 mps 742 mmHg 91%
    17:00 +23°C° 1.6 mm 2 mps 742 mmHg 92%
    18:00 +21°C° 1.6 mm 3 mps 742 mmHg 93%
    19:00 +21°C° 1.6 mm 3 mps 742 mmHg 94%
    20:00 +21°C° 1.7 mm 3 mps 742 mmHg 95%
    21:00 +21°C° 1.7 mm 3 mps 742 mmHg 96%
    22:00 +20°C° 1.7 mm 3 mps 742 mmHg 97%
    23:00 +20°C° 0.7 mm 3 mps 742 mmHg 97%

    Day after tomorrow, 18 July, Wednesday

    Time Temperature Precipitation Wind Pressure Humidity
    00:00 +20°C° 0.7 mm 3 mps 742 mmHg 97%
    01:00 +20°C° 0.7 mm 3 mps 742 mmHg 97%
    02:00 +20°C° 0.3 mm 2 mps 742 mmHg 97%
    03:00 +20°C° 0.3 mm 2 mps 742 mmHg 97%
    04:00 +19°C° 0.3 mm 2 mps 742 mmHg 98%
    05:00 +20°C° 0.1 mm 2 mps 742 mmHg 95%
    06:00 +21°C° 0.1 mm 2 mps 742 mmHg 93%
    07:00 +23°C° 0.1 mm 2 mps 742 mmHg 91%
    08:00 +24°C° 0.9 mm 2 mps 742 mmHg 86%
    09:00 +26°C° 0.9 mm 2 mps 742 mmHg 82%
    10:00 +27°C° 0.9 mm 3 mps 742 mmHg 77%
    11:00 +28°C° 0.9 mm 3 mps 742 mmHg 75%
    12:00 +28°C° 0.9 mm 3 mps 742 mmHg 74%
    13:00 +28°C° 0.9 mm 3 mps 742 mmHg 73%
    14:00 +28°C° 1.1 mm 3 mps 742 mmHg 75%
    15:00 +28°C° 1.1 mm 3 mps 742 mmHg 77%
    16:00 +28°C° 1.1 mm 3 mps 743 mmHg 79%
    17:00 +26°C° 1.1 mm 3 mps 743 mmHg 83%
    18:00 +25°C° 1.1 mm 3 mps 743 mmHg 86%
    19:00 +23°C° 1.1 mm 4 mps 743 mmHg 90%
    20:00 +22°C° 0.9 mm 4 mps 743 mmHg 91%
    21:00 +21°C° 0.9 mm 3 mps 743 mmHg 93%
    22:00 +21°C° 0.9 mm 3 mps 744 mmHg 94%
    23:00 +20°C° 0.1 mm 3 mps 744 mmHg 95%

    19 July, Thursday

    Time Temperature Precipitation Wind Pressure Humidity
    00:00 +20°C° 0.1 mm 3 mps 744 mmHg 95%
    01:00 +19°C° 0.1 mm 3 mps 744 mmHg 95%
    02:00 +19°C° 0 mm 3 mps 744 mmHg 96%
    03:00 +19°C° 0 mm 3 mps 744 mmHg 96%
    04:00 +18°C° 0 mm 3 mps 744 mmHg 96%
    05:00 +19°C° 0 mm 3 mps 744 mmHg 94%
    06:00 +20°C° 0 mm 4 mps 744 mmHg 92%
    07:00 +21°C° 0 mm 4 mps 744 mmHg 89%
    08:00 +23°C° 0.1 mm 4 mps 744 mmHg 82%
    09:00 +25°C° 0.1 mm 4 mps 744 mmHg 75%
    10:00 +27°C° 0.1 mm 4 mps 744 mmHg 67%
    11:00 +27°C° 0.1 mm 4 mps 744 mmHg 66%
    12:00 +28°C° 0.1 mm 4 mps 744 mmHg 64%
    13:00 +28°C° 0.1 mm 4 mps 744 mmHg 62%
    14:00 +28°C° 0.2 mm 5 mps 745 mmHg 64%
    15:00 +27°C° 0.2 mm 5 mps 745 mmHg 66%
    16:00 +27°C° 0.2 mm 5 mps 745 mmHg 69%
    17:00 +25°C° 0.1 mm 5 mps 745 mmHg 73%
    18:00 +23°C° 0.1 mm 4 mps 745 mmHg 78%
    19:00 +22°C° 0.1 mm 3 mps 745 mmHg 83%
    20:00 +21°C° 0 mm 3 mps 745 mmHg 86%
    21:00 +20°C° 0 mm 3 mps 745 mmHg 90%
    22:00 +19°C° 0 mm 3 mps 746 mmHg 93%
    23:00 +18°C° 0 mm 3 mps 746 mmHg 94%

    20 July, Friday

    Time Temperature Precipitation Wind Pressure Humidity
    00:00 +18°C° 0 mm 3 mps 745 mmHg 95%
    01:00 +17°C° 0 mm 3 mps 745 mmHg 96%
    02:00 +17°C° 0 mm 3 mps 745 mmHg 96%
    03:00 +17°C° 0 mm 3 mps 745 mmHg 97%
    04:00 +17°C° 0 mm 3 mps 745 mmHg 97%
    05:00 +18°C° 0 mm 3 mps 745 mmHg 93%
    06:00 +19°C° 0 mm 3 mps 745 mmHg 89%
    07:00 +21°C° 0 mm 3 mps 745 mmHg 85%
    08:00 +22°C° 0.1 mm 3 mps 745 mmHg 78%
    09:00 +25°C° 0.1 mm 3 mps 745 mmHg 71%
    10:00 +26°C° 0.1 mm 3 mps 745 mmHg 64%
    11:00 +26°C° 0.1 mm 4 mps 745 mmHg 62%
    12:00 +27°C° 0.1 mm 4 mps 745 mmHg 60%
    13:00 +27°C° 0.1 mm 4 mps 745 mmHg 58%
    14:00 +27°C° 0.1 mm 4 mps 745 mmHg 61%
    15:00 +26°C° 0.1 mm 4 mps 745 mmHg 64%
    16:00 +26°C° 0.1 mm 4 mps 745 mmHg 67%
    17:00 +25°C° 0.2 mm 4 mps 745 mmHg 73%
    18:00 +22°C° 0.2 mm 4 mps 745 mmHg 80%
    19:00 +21°C° 0.2 mm 3 mps 745 mmHg 86%
    20:00 +20°C° 0 mm 3 mps 745 mmHg 89%
    21:00 +18°C° 0 mm 3 mps 746 mmHg 91%
    22:00 +17°C° 0 mm 2 mps 746 mmHg 94%
    23:00 +17°C° 0 mm 2 mps 746 mmHg 93%

    21 July, Saturday

    Time Temperature Precipitation Wind Pressure Humidity
    00:00 +16°C° 0 mm 2 mps 746 mmHg 92%
    01:00 +16°C° 0 mm 2 mps 746 mmHg 91%
    02:00 +15°C° 0 mm 2 mps 746 mmHg 90%
    03:00 +14°C° 0 mm 2 mps 745 mmHg 90%
    04:00 +14°C° 0 mm 2 mps 745 mmHg 89%
    05:00 +15°C° 0 mm 2 mps 745 mmHg 86%
    06:00 +16°C° 0 mm 2 mps 745 mmHg 82%
    07:00 +18°C° 0 mm 3 mps 746 mmHg 78%
    08:00 +19°C° 0 mm 3 mps 746 mmHg 72%
    09:00 +21°C° 0 mm 3 mps 746 mmHg 65%
    10:00 +22°C° 0 mm 3 mps 746 mmHg 59%
    11:00 +24°C° 0 mm 3 mps 746 mmHg 56%
    12:00 +25°C° 0 mm 3 mps 745 mmHg 54%
    13:00 +25°C° 0 mm 3 mps 745 mmHg 52%
    14:00 +25°C° 0 mm 3 mps 745 mmHg 53%
    15:00 +25°C° 0 mm 3 mps 745 mmHg 55%
    16:00 +25°C° 0 mm 3 mps 745 mmHg 57%
    17:00 +24°C° 0 mm 3 mps 745 mmHg 64%
    18:00 +21°C° 0 mm 3 mps 745 mmHg 71%
    19:00 +20°C° 0 mm 3 mps 745 mmHg 79%
    20:00 +18°C° 0 mm 2 mps 745 mmHg 83%
    21:00 +17°C° 0 mm 2 mps 745 mmHg 87%
    22:00 +15°C° 0 mm 2 mps 746 mmHg 91%
    23:00 +15°C° 0 mm 2 mps 745 mmHg 91%
    Show more